This is the latest recevied weather packets stored in our database for station/object KC8JWT. If no packets are shown the sender has not sent any weather packets the latest 10 day(s).
| Time | Temp. | Humidity | Pressure | Rain* | Wind** | Luminosity | Snow |
|---|---|---|---|---|---|---|---|
| 1778014017 | 24.44° C | 53% | 1009 hPa | 0 mm | - | 286 W/m² | - |
| 1778013715 | 24.44° C | 53% | 1008.8 hPa | 0 mm | - | 313 W/m² | - |
| 1778013412 | 24.44° C | 53% | 1009 hPa | 0 mm | - | 330 W/m² | - |
| 1778013108 | 24.44° C | 53% | 1009 hPa | 0 mm | - | 335 W/m² | - |
| 1778012804 | 24.44° C | 54% | 1008.9 hPa | 0 mm | - | 298 W/m² | - |
| 1778012500 | 24.44° C | 53% | 1009 hPa | 0 mm | - | 315 W/m² | - |
| 1778012197 | 24.44° C | 54% | 1009.1 hPa | 0 mm | - | 340 W/m² | - |
| 1778011895 | 24.44° C | 54% | 1009.1 hPa | 0 mm | - | 354 W/m² | - |
| 1778011593 | 24.44° C | 53% | 1009.3 hPa | 0 mm | - | 392 W/m² | - |
| 1778011289 | 24.44° C | 53% | 1009.3 hPa | 0 mm | - | 438 W/m² | - |
| 1778010985 | 23.89° C | 54% | 1009.6 hPa | 0 mm | - | 382 W/m² | - |
| 1778010683 | 24.44° C | 53% | 1009.3 hPa | 0 mm | - | 354 W/m² | - |
| 1778010380 | 24.44° C | 53% | 1009.3 hPa | 0 mm | - | 400 W/m² | - |
| 1778010076 | 24.44° C | 54% | 1009.3 hPa | 0 mm | - | 389 W/m² | - |
| 1778009773 | 24.44° C | 54% | 1009.5 hPa | 0 mm | - | 426 W/m² | - |
| 1778009470 | 24.44° C | 54% | 1009.5 hPa | 0 mm | - | 406 W/m² | - |
| 1778009169 | 24.44° C | 52% | 1009.6 hPa | 0 mm | - | 398 W/m² | - |
| 1778008866 | 24.44° C | 54% | 1009.8 hPa | 0 mm | - | 392 W/m² | - |
| 1778008564 | 25° C | 53% | 1009.9 hPa | 0 mm | - | 391 W/m² | - |
| 1778008262 | 24.44° C | 54% | 1009.9 hPa | 0 mm | - | 390 W/m² | - |
| 1778007962 | 25° C | 53% | 1009.8 hPa | 0 mm | - | 402 W/m² | - |
| 1778007658 | 25° C | 53% | 1009.7 hPa | 0 mm | - | 402 W/m² | - |
| 1778007355 | 25° C | 54% | 1009.9 hPa | 0 mm | - | 603 W/m² | - |
| 1778007051 | 25° C | 55% | 1009.6 hPa | 0 mm | - | 654 W/m² | - |
| 1778006748 | 24.44° C | 55% | 1009.8 hPa | 0 mm | - | 542 W/m² | - |
* Rain latest hour (hover to see other rain measurements)
** Current wind speed in m/s (hover to see current wind gust speed)